MUC64P EDDS-EDDN

Flight info

Callsign MUC64P
Flight time 0h 26m
Altitude 17000
Route DKB4H DKB N869 LETKU LETKU1V
Aircraft A319/M-SDE3FGHIRWY/LB1

Departure

Time 2026-05-04 08:54
Airport Stuttgart Airport (EDDS)

Arrival

Time 2026-05-04 09:21
Airport Nuremberg Airport (EDDN)
Time Latitude Longitude Altitude Speed Heading
2026-05-04 08:47 48.68953 9.19716 1285 ft 0 kts 344°
2026-05-04 08:48 48.68946 9.19719 1290 ft 3 kts 344°
2026-05-04 08:48 48.68927 9.19727 1287 ft 3 kts 344°
2026-05-04 08:48 48.68909 9.19735 1291 ft 3 kts 344°
2026-05-04 08:48 48.68892 9.19742 1291 ft 3 kts 344°
2026-05-04 08:49 48.68873 9.19750 1289 ft 3 kts 23°
2026-05-04 08:50 48.68854 9.19845 1288 ft 7 kts 140°
2026-05-04 08:50 48.68813 9.19896 1285 ft 8 kts 141°
2026-05-04 08:51 48.68764 9.19951 1285 ft 9 kts 157°
2026-05-04 08:51 48.68700 9.19980 1289 ft 10 kts 163°
2026-05-04 08:51 48.68629 9.20009 1289 ft 11 kts 165°
2026-05-04 08:51 48.68596 9.20022 1289 ft 0 kts 166°
2026-05-04 08:52 48.68592 9.20023 1288 ft 1 kts 166°
2026-05-04 08:52 48.68582 9.20028 1289 ft 2 kts 161°
2026-05-04 08:52 48.68579 9.20039 1289 ft 1 kts 113°
2026-05-04 08:52 48.68580 9.20044 1289 ft 0 kts 85°
2026-05-04 08:53 48.68581 9.20048 1288 ft 1 kts 75°
2026-05-04 08:54 48.69817 9.26546 3098 ft 169 kts 75°
2026-05-04 08:55 48.70165 9.28366 3499 ft 191 kts 75°
2026-05-04 08:55 48.70547 9.30424 3855 ft 217 kts 75°
2026-05-04 08:55 48.70978 9.32746 4401 ft 242 kts 75°
2026-05-04 08:55 48.71456 9.35316 4952 ft 266 kts 76°
2026-05-04 08:57 48.78695 9.57782 8662 ft 393 kts 51°
2026-05-04 09:01 49.03137 10.02972 17054 ft 387 kts 51°
2026-05-04 09:01 49.04818 10.06108 17054 ft 387 kts 51°
2026-05-04 09:01 49.06522 10.09286 17053 ft 387 kts 51°
2026-05-04 09:01 49.08223 10.12468 17070 ft 387 kts 51°
2026-05-04 09:02 49.09926 10.15658 17057 ft 387 kts 51°
2026-05-04 09:02 49.11626 10.18861 17060 ft 388 kts 51°
2026-05-04 09:02 49.13326 10.22057 17052 ft 388 kts 51°
2026-05-04 09:02 49.15115 10.25145 17053 ft 389 kts 45°
2026-05-04 09:03 49.17023 10.28075 17057 ft 389 kts 45°
2026-05-04 09:03 49.18929 10.31013 17059 ft 389 kts 45°
2026-05-04 09:03 49.20829 10.33958 17074 ft 390 kts 45°
2026-05-04 09:03 49.22732 10.36914 17070 ft 390 kts 45°
2026-05-04 09:04 49.24644 10.39878 17071 ft 390 kts 45°
2026-05-04 09:04 49.26550 10.42804 17071 ft 390 kts 45°
2026-05-04 09:04 49.28476 10.45747 17076 ft 390 kts 45°
2026-05-04 09:04 49.30398 10.48681 17077 ft 390 kts 45°
2026-05-04 09:05 49.32319 10.51615 17076 ft 390 kts 45°
2026-05-04 09:05 49.34239 10.54555 17075 ft 390 kts 45°
2026-05-04 09:05 49.36159 10.57502 17076 ft 390 kts 45°
2026-05-04 09:05 49.38068 10.60454 17076 ft 390 kts 45°
2026-05-04 09:06 49.39915 10.63427 17071 ft 390 kts 51°
2026-05-04 09:07 49.41416 10.90911 16910 ft 369 kts 101°
2026-05-04 09:08 49.41045 10.94776 16514 ft 364 kts 101°
2026-05-04 09:08 49.40677 10.98594 16080 ft 360 kts 101°
2026-05-04 09:08 49.40310 11.02385 15642 ft 358 kts 101°
2026-05-04 09:08 49.39940 11.06143 15210 ft 355 kts 101°
2026-05-04 09:09 49.39569 11.09877 14793 ft 353 kts 102°
2026-05-04 09:09 49.39200 11.13589 14382 ft 350 kts 102°
2026-05-04 09:09 49.38956 11.16030 14105 ft 348 kts 102°
2026-05-04 09:09 49.38593 11.19698 13678 ft 346 kts 102°
2026-05-04 09:10 49.38232 11.23339 13195 ft 344 kts 101°
2026-05-04 09:10 49.37871 11.26945 12898 ft 337 kts 101°
2026-05-04 09:10 49.37522 11.30434 12758 ft 325 kts 101°
2026-05-04 09:10 49.37183 11.33807 12611 ft 315 kts 101°
2026-05-04 09:11 49.36848 11.37104 12314 ft 311 kts 101°
2026-05-04 09:11 49.36513 11.40372 11965 ft 309 kts 101°
2026-05-04 09:11 49.36179 11.43622 11561 ft 309 kts 101°
2026-05-04 09:11 49.35843 11.46896 11062 ft 312 kts 101°
2026-05-04 09:12 49.35503 11.50185 10584 ft 313 kts 101°
2026-05-04 09:12 49.35169 11.53477 9973 ft 311 kts 98°
2026-05-04 09:14 49.44738 11.57759 6104 ft 259 kts 287°
2026-05-04 09:14 49.45098 11.55127 5971 ft 245 kts 277°
2026-05-04 09:14 49.45360 11.52594 5841 ft 235 kts 276°
2026-05-04 09:14 49.45608 11.50169 5714 ft 225 kts 276°
2026-05-04 09:15 49.45846 11.47844 5574 ft 215 kts 277°
2026-05-04 09:15 49.46074 11.45617 5423 ft 207 kts 277°
2026-05-04 09:15 49.46292 11.43476 5307 ft 199 kts 276°
2026-05-04 09:15 49.46504 11.41395 5131 ft 195 kts 277°
2026-05-04 09:17 49.48093 11.25658 3128 ft 167 kts 278°
2026-05-04 09:18 49.48266 11.23936 2929 ft 160 kts 277°
2026-05-04 09:18 49.48426 11.22342 2727 ft 146 kts 277°
2026-05-04 09:18 49.48575 11.20850 2536 ft 138 kts 278°
2026-05-04 09:18 49.48718 11.19418 2351 ft 134 kts 277°
2026-05-04 09:19 49.48859 11.18001 2182 ft 133 kts 277°
2026-05-04 09:19 49.48999 11.16594 2005 ft 133 kts 277°
2026-05-04 09:19 49.49138 11.15193 1820 ft 132 kts 278°
2026-05-04 09:19 49.49276 11.13807 1644 ft 131 kts 279°
2026-05-04 09:20 49.49411 11.12419 1464 ft 131 kts 278°
2026-05-04 09:20 49.49548 11.11033 1301 ft 131 kts 279°
2026-05-04 09:20 49.49683 11.09627 1101 ft 132 kts 280°
2026-05-04 09:20 49.49832 11.08337 1034 ft 99 kts 280°
2026-05-04 09:21 49.49884 11.07775 1027 ft 12 kts 276°
2026-05-04 09:21 49.49873 11.07662 1024 ft 11 kts 211°
2026-05-04 09:21 49.49814 11.07652 1025 ft 11 kts 150°
2026-05-04 09:21 49.49830 11.07679 1020 ft 1 kts 249°
2026-05-04 09:22 49.49805 11.07669 1023 ft 6 kts 152°
2026-05-04 09:22 49.49766 11.07698 1026 ft 7 kts 156°
2026-05-04 09:22 49.49721 11.07728 1026 ft 7 kts 156°
2026-05-04 09:22 49.49678 11.07757 1026 ft 7 kts 156°
2026-05-04 09:23 49.49642 11.07772 1027 ft 6 kts 178°
2026-05-04 09:23 49.49585 11.07738 1027 ft 8 kts 205°
2026-05-04 09:23 49.49546 11.07729 1023 ft 6 kts 193°
2026-05-04 09:23 49.49520 11.07723 1025 ft 0 kts 187°